CHIBIS-M - Orbit

View from above orbital plane
View from above orbital plane
View from above satellite
View from above satellite

Ground track
Ground track

The orbit data is extracted from the following two-line orbital elements,

1 38051U 11062C   13141.30938657  .00020949  00000-0  67730-3 0  4601
2 38051 051.6366 340.2526 0012826 165.4563 188.8049 15.31957639 73655
Epoch (UTC): 21 May 2013 07:25:31
Eccentricity: 0.0012826
inclination: 51.6366°
perigee height: 461 km
apogee height: 479 km
right ascension of ascending node: 340.2526°
argument of perigee: 165.4563°
revolutions per day: 15.31957639
mean anomaly at epoch: 188.8049°
orbit number at epoch: 7365

The dashed part of the orbit path shows where the satellite is in the earth's shadow,  

Developed and maintained by Chris Peat, Heavens-Above GmbH. Please read the updated FAQ before sending e-mail. Imprint. DLR